CZ-4C R/B (54250 NORAD) Tracking and Keplerian Element Data

This shows tracking and keplerian element data for the satellite.

Feedback or suggestion? Click here.




ElementValue
Catalog54250
NameCZ-4C R/B
Epoch Orbit80
Epoch Day324.89015251
Epoch Year2022
RAAN10.8146
Inclination63.4132
Eccentricity0.0121734
Argument of Perigee44.6954
Mean Anonmoly316.3821
Mean Motion13.68843493
Decay Rate2.9E-07
L11 54250U 22154B 22324.89015251 .00000029 00000+0 13805-3 0 9994
L22 54250 63.4132 10.8146 0121734 44.6954 316.3821 13.68843493 808



Live tracking and technical data element details for CZ-4C R/B (NORAD 54250). CZ-4C R/B can be tracked NOW for your location showing map with azimuth and elevation plus other details from your city location.







IsCatalogInMostPopularTable: catalog: 54250, numindb: 5
Update: records affected: 1



GetName: 54250 CZ-4C R/B

Hit Count: updated at: Sun, 04 Dec 2022 22:32:05 GMT